TimeEDT,TemperatureF,Dew PointF,Humidity,Sea Level PressureIn,VisibilityMPH,Wind Direction,Wind SpeedMPH,Gust SpeedMPH,PrecipitationIn,Events,Conditions,WindDirDegrees,DateUTC
12:57 AM,55.9,48.9,77,29.44,10.0,NW,15.0,27.6,N/A,,Overcast,320,2012-10-29 04:57:00
1:57 AM,55.9,50.0,80,29.44,10.0,NW,15.0,25.3,N/A,,Overcast,310,2012-10-29 05:57:00
2:57 AM,55.0,50.0,83,29.43,10.0,NW,17.3,26.5,N/A,,Overcast,310,2012-10-29 06:57:00
3:57 AM,55.0,50.0,83,29.43,10.0,NW,13.8,27.6,N/A,,Overcast,310,2012-10-29 07:57:00
4:22 AM,53.6,50.0,88,29.42,9.0,WNW,16.1,28.8,N/A,,Overcast,300,2012-10-29 08:22:00
4:57 AM,53.1,51.1,93,29.44,5.0,WNW,11.5,21.9,0.00,Rain,Light Rain,300,2012-10-29 08:57:00
5:18 AM,53.6,50.0,88,29.42,9.0,NW,15.0,32.2,0.00,Rain,Light Rain,310,2012-10-29 09:18:00
5:34 AM,53.6,50.0,88,29.43,10.0,NW,13.8,24.2,0.00,,Overcast,310,2012-10-29 09:34:00
5:57 AM,53.1,50.0,89,29.44,10.0,NW,15.0,24.2,0.00,,Overcast,310,2012-10-29 09:57:00
6:57 AM,52.0,48.9,89,29.43,10.0,NW,12.7,21.9,0.00,,Mostly Cloudy,320,2012-10-29 10:57:00
7:06 AM,51.8,48.2,88,29.42,10.0,NW,12.7,21.9,N/A,,Mostly Cloudy,310,2012-10-29 11:06:00
8:57 AM,51.1,48.0,89,29.44,10.0,WNW,10.4,23.0,N/A,,Overcast,290,2012-10-29 12:57:00
9:57 AM,51.1,46.0,83,29.43,10.0,WNW,12.7,29.9,N/A,,Overcast,290,2012-10-29 13:57:00
10:57 AM,52.0,46.0,80,29.43,10.0,WNW,9.2,20.7,N/A,,Overcast,290,2012-10-29 14:57:00
11:57 AM,51.1,44.1,77,29.43,10.0,WNW,13.8,23.0,N/A,,Overcast,300,2012-10-29 15:57:00
12:57 PM,51.1,44.1,77,29.42,10.0,WNW,15.0,27.6,N/A,,Overcast,290,2012-10-29 16:57:00
1:00 PM,51.8,44.6,76,29.41,10.0,West,11.5,23.0,N/A,,Overcast,280,2012-10-29 17:00:00
1:57 PM,50.0,44.1,80,29.40,10.0,West,12.7,26.5,N/A,,Overcast,280,2012-10-29 17:57:00
2:57 PM,50.0,44.1,80,29.38,10.0,WNW,16.1,28.8,N/A,,Overcast,290,2012-10-29 18:57:00
4:57 PM,51.1,42.1,71,29.37,10.0,West,11.5,24.2,N/A,,Overcast,270,2012-10-29 20:57:00
5:57 PM,50.0,39.9,68,29.37,10.0,West,11.5,23.0,N/A,,Overcast,270,2012-10-29 21:57:00
6:57 PM,48.9,37.9,66,29.38,10.0,West,16.1,25.3,N/A,,Mostly Cloudy,270,2012-10-29 22:57:00
7:57 PM,48.0,37.9,68,29.39,10.0,West,13.8,25.3,N/A,,Partly Cloudy,270,2012-10-29 23:57:00
9:57 PM,48.0,37.0,66,29.40,10.0,West,13.8,28.8,N/A,,Overcast,270,2012-10-30 01:57:00
10:57 PM,48.0,37.0,66,29.40,10.0,West,16.1,26.5,N/A,,Overcast,260,2012-10-30 02:57:00
11:57 PM,48.0,36.0,63,29.41,10.0,West,9.2,27.6,N/A,,Overcast,270,2012-10-30 03:57:00